ITEST LILN-LIRJ

Flight info

Callsign ITEST
Flight time 1h 24m
Altitude 5500
Route SRN VOG GEN ELB
Aircraft C172/L-VGD/A

Departure

Time 2026-04-25 13:11
Airport Varese-Venegono Airport (LILN)

Arrival

Time 2026-04-25 14:35
Airport Marina di Campo Airport (LIRJ)
Time Latitude Longitude Altitude Speed Heading
2026-04-25 13:05 45.73765 8.89150 1073 ft 0 kts 256°
2026-04-25 13:07 45.73765 8.89146 1073 ft 3 kts 276°
2026-04-25 13:07 45.73778 8.89076 1076 ft 11 kts 266°
2026-04-25 13:08 45.73816 8.88994 1077 ft 17 kts 354°
2026-04-25 13:08 45.73924 8.88979 1080 ft 14 kts 357°
2026-04-25 13:08 45.74012 8.88970 1083 ft 13 kts 354°
2026-04-25 13:08 45.74085 8.88910 1085 ft 16 kts 270°
2026-04-25 13:09 45.74140 8.88815 1087 ft 13 kts 353°
2026-04-25 13:09 45.74223 8.88804 1090 ft 16 kts 358°
2026-04-25 13:09 45.74364 8.88799 1095 ft 19 kts 358°
2026-04-25 13:09 45.74477 8.88811 1099 ft 14 kts 16°
2026-04-25 13:10 45.74492 8.88784 1100 ft 5 kts 229°
2026-04-25 13:10 45.74471 8.88783 1099 ft 16 kts 173°
2026-04-25 13:10 45.74151 8.88828 1179 ft 63 kts 173°
2026-04-25 13:10 45.73722 8.88984 1472 ft 73 kts 169°
2026-04-25 13:11 45.73123 8.89295 1511 ft 110 kts 161°
2026-04-25 13:11 45.72375 8.89738 1547 ft 119 kts 159°
2026-04-25 13:11 45.71665 8.90372 1647 ft 127 kts 130°
2026-04-25 13:11 45.71318 8.91584 1767 ft 134 kts 118°
2026-04-25 13:12 45.70884 8.92784 1866 ft 137 kts 124°
2026-04-25 13:12 45.70351 8.93922 1933 ft 138 kts 129°
2026-04-25 13:12 45.69756 8.95009 1966 ft 140 kts 134°
2026-04-25 13:12 45.69299 8.95691 1978 ft 141 kts 139°
2026-04-25 13:13 45.68334 8.96965 1987 ft 143 kts 140°
2026-04-25 13:13 45.67617 8.97971 2005 ft 145 kts 139°
2026-04-25 13:13 45.66899 8.98980 2003 ft 145 kts 140°
2026-04-25 13:13 45.66167 8.99970 1998 ft 145 kts 139°
2026-04-25 13:14 45.65449 9.00987 1996 ft 145 kts 139°
2026-04-25 13:14 45.64656 9.01776 1985 ft 138 kts 169°
2026-04-25 13:14 45.63703 9.01926 1992 ft 138 kts 176°
2026-04-25 13:14 45.62739 9.02018 2014 ft 141 kts 179°
2026-04-25 13:15 45.61760 9.01976 1992 ft 141 kts 186°
2026-04-25 13:15 45.60783 9.01857 2001 ft 142 kts 186°
2026-04-25 13:15 45.59788 9.01775 2004 ft 144 kts 184°
2026-04-25 13:15 45.58792 9.01713 2011 ft 144 kts 184°
2026-04-25 13:16 45.57790 9.01645 2003 ft 144 kts 185°
2026-04-25 13:16 45.56791 9.01566 2006 ft 144 kts 185°
2026-04-25 13:16 45.55788 9.01482 1995 ft 144 kts 185°
2026-04-25 13:16 45.54795 9.01406 1990 ft 143 kts 184°
2026-04-25 13:17 45.53803 9.01337 1992 ft 142 kts 184°
2026-04-25 13:17 45.52820 9.01261 1986 ft 141 kts 185°
2026-04-25 13:17 45.51833 9.01187 1995 ft 142 kts 185°
2026-04-25 13:17 45.50858 9.01111 2001 ft 142 kts 185°
2026-04-25 13:18 45.49871 9.01031 1986 ft 142 kts 184°
2026-04-25 13:18 45.48874 9.00960 2008 ft 145 kts 183°
2026-04-25 13:18 45.47862 9.00883 2015 ft 146 kts 184°
2026-04-25 13:18 45.46850 9.00817 2019 ft 145 kts 184°
2026-04-25 13:19 45.45839 9.00737 2029 ft 147 kts 183°
2026-04-25 13:19 45.44810 9.00648 2045 ft 149 kts 184°
2026-04-25 13:19 45.43776 9.00573 2019 ft 148 kts 184°
2026-04-25 13:19 45.43097 9.00530 2009 ft 146 kts 185°
2026-04-25 13:20 45.41768 9.00425 1996 ft 141 kts 185°
2026-04-25 13:20 45.40778 9.00346 1992 ft 143 kts 185°
2026-04-25 13:20 45.39783 9.00264 1996 ft 143 kts 185°
2026-04-25 13:20 45.38777 9.00195 2019 ft 146 kts 184°
2026-04-25 13:21 45.37761 9.00126 2012 ft 145 kts 184°
2026-04-25 13:21 45.36762 9.00046 1994 ft 143 kts 185°
2026-04-25 13:21 45.35766 8.99960 2000 ft 144 kts 185°
2026-04-25 13:21 45.34764 8.99890 1998 ft 144 kts 184°
2026-04-25 13:22 45.33745 8.99814 2009 ft 148 kts 183°
2026-04-25 13:22 45.32720 8.99743 1994 ft 147 kts 184°
2026-04-25 13:22 45.31693 8.99663 2009 ft 147 kts 184°
2026-04-25 13:23 45.29656 8.99505 2030 ft 147 kts 184°
2026-04-25 13:23 45.28633 8.99425 2022 ft 147 kts 184°
2026-04-25 13:23 45.27604 8.99354 2010 ft 148 kts 184°
2026-04-25 13:23 45.26579 8.99277 2009 ft 148 kts 184°
2026-04-25 13:24 45.25554 8.99198 2014 ft 148 kts 184°
2026-04-25 13:24 45.24527 8.99121 2015 ft 148 kts 184°
2026-04-25 13:24 45.23498 8.99042 2015 ft 148 kts 184°
2026-04-25 13:24 45.22465 8.98968 2059 ft 150 kts 184°
2026-04-25 13:25 45.21418 8.98892 2063 ft 150 kts 184°
2026-04-25 13:25 45.20381 8.98807 2037 ft 148 kts 184°
2026-04-25 13:25 45.19349 8.98731 2035 ft 148 kts 184°
2026-04-25 13:25 45.18339 8.98655 2024 ft 146 kts 184°
2026-04-25 13:26 45.17321 8.98579 2019 ft 146 kts 184°
2026-04-25 13:26 45.16312 8.98503 2023 ft 145 kts 184°
2026-04-25 13:26 45.15296 8.98427 2057 ft 147 kts 185°
2026-04-25 13:26 45.14277 8.98355 2022 ft 145 kts 184°
2026-04-25 13:27 45.13268 8.98279 2041 ft 145 kts 184°
2026-04-25 13:27 45.12256 8.98198 2052 ft 146 kts 184°
2026-04-25 13:27 45.11239 8.98119 2038 ft 147 kts 184°
2026-04-25 13:27 45.10208 8.98047 2075 ft 150 kts 185°
2026-04-25 13:28 45.09172 8.97971 2058 ft 148 kts 185°
2026-04-25 13:28 45.08825 8.97946 2042 ft 147 kts 185°
2026-04-25 13:28 45.07164 8.97797 2033 ft 141 kts 184°
2026-04-25 13:28 45.06173 8.97753 2055 ft 144 kts 184°
2026-04-25 13:29 45.05164 8.97683 2054 ft 146 kts 184°
2026-04-25 13:29 45.04147 8.97592 2070 ft 144 kts 185°
2026-04-25 13:29 45.03176 8.97524 2166 ft 138 kts 185°
2026-04-25 13:30 45.01268 8.97364 2280 ft 136 kts 184°
2026-04-25 13:30 45.00322 8.97309 2371 ft 136 kts 183°
2026-04-25 13:30 44.99371 8.97237 2465 ft 139 kts 183°
2026-04-25 13:31 44.97463 8.97092 2601 ft 137 kts 184°
2026-04-25 13:31 44.96510 8.97070 2671 ft 137 kts 180°
2026-04-25 13:31 44.95570 8.97169 2748 ft 135 kts 173°
2026-04-25 13:31 44.94636 8.97397 2824 ft 137 kts 171°
2026-04-25 13:32 44.93696 8.97619 2907 ft 139 kts 173°
2026-04-25 13:32 44.92741 8.97807 2986 ft 138 kts 174°
2026-04-25 13:32 44.91790 8.97996 3070 ft 137 kts 174°
2026-04-25 13:32 44.90844 8.98189 3138 ft 137 kts 173°
2026-04-25 13:33 44.89893 8.98392 3217 ft 139 kts 173°
2026-04-25 13:33 44.88936 8.98600 3300 ft 139 kts 174°
2026-04-25 13:33 44.87976 8.98797 3386 ft 139 kts 174°
2026-04-25 13:33 44.87337 8.98924 3447 ft 140 kts 174°
2026-04-25 13:34 44.86052 8.99195 3498 ft 138 kts 172°
2026-04-25 13:34 44.85106 8.99394 3557 ft 138 kts 172°
2026-04-25 13:34 44.84156 8.99593 3639 ft 138 kts 172°
2026-04-25 13:34 44.83209 8.99791 3745 ft 136 kts 172°
2026-04-25 13:35 44.82276 8.99981 3835 ft 135 kts 171°
2026-04-25 13:35 44.81359 9.00174 3924 ft 133 kts 170°
2026-04-25 13:35 44.80455 9.00370 4025 ft 134 kts 171°
2026-04-25 13:35 44.79528 9.00560 4129 ft 135 kts 171°
2026-04-25 13:36 44.78592 9.00753 4240 ft 137 kts 171°
2026-04-25 13:36 44.77645 9.00946 4348 ft 138 kts 170°
2026-04-25 13:36 44.76689 9.01148 4447 ft 139 kts 170°
2026-04-25 13:36 44.75726 9.01349 4552 ft 140 kts 170°
2026-04-25 13:37 44.74762 9.01549 4657 ft 141 kts 170°
2026-04-25 13:37 44.73795 9.01752 4755 ft 141 kts 170°
2026-04-25 13:37 44.72825 9.01951 4853 ft 141 kts 170°
2026-04-25 13:37 44.71850 9.02157 4972 ft 142 kts 170°
2026-04-25 13:38 44.70873 9.02360 5075 ft 142 kts 171°
2026-04-25 13:38 44.69898 9.02560 5168 ft 142 kts 171°
2026-04-25 13:38 44.68929 9.02760 5257 ft 140 kts 171°
2026-04-25 13:38 44.67962 9.02962 5361 ft 140 kts 171°
2026-04-25 13:39 44.66992 9.03164 5461 ft 141 kts 171°
2026-04-25 13:39 44.66011 9.03367 5509 ft 144 kts 171°
2026-04-25 13:39 44.65015 9.03572 5530 ft 145 kts 171°
2026-04-25 13:39 44.64008 9.03781 5554 ft 147 kts 171°
2026-04-25 13:40 44.63009 9.03993 5559 ft 147 kts 172°
2026-04-25 13:40 44.61997 9.04199 5561 ft 147 kts 172°
2026-04-25 13:40 44.60986 9.04405 5555 ft 146 kts 172°
2026-04-25 13:40 44.59985 9.04612 5552 ft 145 kts 171°
2026-04-25 13:41 44.58991 9.04821 5561 ft 144 kts 171°
2026-04-25 13:41 44.57994 9.05029 5553 ft 145 kts 172°
2026-04-25 13:41 44.56994 9.05234 5560 ft 145 kts 172°
2026-04-25 13:41 44.55990 9.05440 5569 ft 146 kts 172°
2026-04-25 13:42 44.54982 9.05646 5571 ft 147 kts 171°
2026-04-25 13:42 44.53973 9.05859 5580 ft 147 kts 171°
2026-04-25 13:42 44.52963 9.06067 5582 ft 147 kts 172°
2026-04-25 13:42 44.51950 9.06276 5578 ft 147 kts 172°
2026-04-25 13:43 44.50945 9.06481 5568 ft 146 kts 172°
2026-04-25 13:43 44.49945 9.06689 5561 ft 145 kts 172°
2026-04-25 13:43 44.48952 9.06892 5570 ft 144 kts 171°
2026-04-25 13:43 44.47958 9.07098 5576 ft 145 kts 171°
2026-04-25 13:44 44.46957 9.07307 5572 ft 145 kts 172°
2026-04-25 13:44 44.45954 9.07513 5577 ft 146 kts 172°
2026-04-25 13:44 44.44944 9.07717 5576 ft 146 kts 172°
2026-04-25 13:44 44.43939 9.07923 5580 ft 146 kts 171°
2026-04-25 13:45 44.42948 9.08183 5569 ft 144 kts 162°
2026-04-25 13:45 44.42003 9.08669 5568 ft 145 kts 158°
2026-04-25 13:45 44.41088 9.09275 5566 ft 146 kts 151°
2026-04-25 13:45 44.40215 9.10015 5576 ft 147 kts 149°
2026-04-25 13:46 44.39348 9.10739 5574 ft 147 kts 151°
2026-04-25 13:46 44.38452 9.11435 5575 ft 148 kts 152°
2026-04-25 13:46 44.37556 9.12138 5567 ft 147 kts 150°
2026-04-25 13:46 44.36670 9.12857 5575 ft 147 kts 150°
2026-04-25 13:47 44.35779 9.13570 5575 ft 148 kts 151°
2026-04-25 13:47 44.34883 9.14282 5570 ft 148 kts 150°
2026-04-25 13:47 44.33990 9.14998 5571 ft 148 kts 150°
2026-04-25 13:47 44.33101 9.15708 5567 ft 147 kts 151°
2026-04-25 13:48 44.32209 9.16416 5576 ft 147 kts 151°
2026-04-25 13:48 44.31318 9.17128 5580 ft 148 kts 150°
2026-04-25 13:48 44.30715 9.17610 5578 ft 148 kts 150°
2026-04-25 13:48 44.29818 9.18325 5581 ft 148 kts 150°
2026-04-25 13:49 44.28930 9.19033 5575 ft 149 kts 150°
2026-04-25 13:49 44.28030 9.19752 5565 ft 149 kts 150°
2026-04-25 13:49 44.27125 9.20472 5525 ft 149 kts 151°
2026-04-25 13:49 44.26223 9.21187 5511 ft 149 kts 151°
2026-04-25 13:50 44.25324 9.21902 5505 ft 149 kts 150°
2026-04-25 13:50 44.24428 9.22618 5503 ft 148 kts 150°
2026-04-25 13:50 44.23535 9.23346 5511 ft 149 kts 154°
2026-04-25 13:50 44.22630 9.24052 5507 ft 149 kts 155°
2026-04-25 13:51 44.21725 9.24753 5507 ft 149 kts 154°
2026-04-25 13:51 44.20825 9.25472 5512 ft 149 kts 153°
2026-04-25 13:51 44.19922 9.26196 5513 ft 150 kts 153°
2026-04-25 13:51 44.19032 9.26910 5508 ft 150 kts 153°
2026-04-25 13:52 44.18125 9.27628 5507 ft 150 kts 153°
2026-04-25 13:52 44.17222 9.28350 5505 ft 149 kts 153°
2026-04-25 13:52 44.16316 9.29060 5507 ft 149 kts 154°
2026-04-25 13:52 44.15410 9.29765 5510 ft 149 kts 152°
2026-04-25 13:53 44.14511 9.30494 5506 ft 149 kts 152°
2026-04-25 13:53 44.13611 9.31212 5506 ft 149 kts 153°
2026-04-25 13:53 44.12708 9.31923 5506 ft 149 kts 153°
2026-04-25 13:53 44.11805 9.32631 5510 ft 149 kts 152°
2026-04-25 13:54 44.10907 9.33350 5507 ft 149 kts 153°
2026-04-25 13:54 44.10011 9.34060 5505 ft 148 kts 153°
2026-04-25 13:54 44.09114 9.34760 5511 ft 148 kts 153°
2026-04-25 13:54 44.08218 9.35469 5505 ft 148 kts 153°
2026-04-25 13:55 44.07324 9.36185 5501 ft 148 kts 153°
2026-04-25 13:55 44.06424 9.36888 5501 ft 149 kts 153°
2026-04-25 13:55 44.05525 9.37603 5500 ft 148 kts 153°
2026-04-25 13:55 44.04628 9.38311 5499 ft 148 kts 154°
2026-04-25 13:56 44.03728 9.39017 5504 ft 149 kts 154°
2026-04-25 13:56 44.02819 9.39711 5503 ft 150 kts 156°
2026-04-25 13:56 44.01909 9.40430 5503 ft 151 kts 154°
2026-04-25 13:56 44.01002 9.41180 5503 ft 152 kts 154°
2026-04-25 13:57 44.00085 9.41909 5503 ft 151 kts 155°
2026-04-25 13:57 43.99476 9.42380 5502 ft 151 kts 155°
2026-04-25 13:57 43.98250 9.43335 5500 ft 151 kts 154°
2026-04-25 13:57 43.97337 9.44061 5501 ft 151 kts 154°
2026-04-25 13:58 43.96423 9.44781 5501 ft 151 kts 155°
2026-04-25 13:58 43.95509 9.45496 5502 ft 151 kts 155°
2026-04-25 13:58 43.94593 9.46212 5503 ft 151 kts 154°
2026-04-25 13:58 43.93675 9.46940 5502 ft 152 kts 155°
2026-04-25 13:59 43.92762 9.47655 5503 ft 153 kts 155°
2026-04-25 13:59 43.91834 9.48381 5503 ft 153 kts 155°
2026-04-25 13:59 43.90905 9.49112 5503 ft 153 kts 155°
2026-04-25 13:59 43.89977 9.49842 5502 ft 153 kts 155°
2026-04-25 14:00 43.89047 9.50570 5501 ft 153 kts 155°
2026-04-25 14:00 43.88117 9.51299 5503 ft 153 kts 155°
2026-04-25 14:00 43.87190 9.52026 5505 ft 153 kts 155°
2026-04-25 14:00 43.86262 9.52754 5505 ft 153 kts 155°
2026-04-25 14:01 43.85334 9.53481 5504 ft 153 kts 155°
2026-04-25 14:01 43.84406 9.54208 5506 ft 153 kts 155°
2026-04-25 14:01 43.83479 9.54935 5505 ft 153 kts 155°
2026-04-25 14:01 43.82552 9.55660 5505 ft 153 kts 155°
2026-04-25 14:02 43.81627 9.56388 5506 ft 153 kts 156°
2026-04-25 14:02 43.80694 9.57111 5507 ft 154 kts 156°
2026-04-25 14:02 43.79760 9.57838 5507 ft 154 kts 156°
2026-04-25 14:02 43.79143 9.58324 5507 ft 154 kts 156°
2026-04-25 14:03 43.77893 9.59305 5506 ft 154 kts 156°
2026-04-25 14:03 43.76960 9.60032 5506 ft 154 kts 156°
2026-04-25 14:03 43.76028 9.60757 5506 ft 154 kts 156°
2026-04-25 14:03 43.75109 9.61476 5506 ft 154 kts 156°
2026-04-25 14:04 43.74175 9.62206 5504 ft 154 kts 156°
2026-04-25 14:04 43.73241 9.62934 5506 ft 154 kts 156°
2026-04-25 14:04 43.72307 9.63662 5507 ft 154 kts 156°
2026-04-25 14:04 43.71375 9.64389 5507 ft 154 kts 156°
2026-04-25 14:05 43.70443 9.65114 5508 ft 154 kts 156°
2026-04-25 14:05 43.69512 9.65840 5508 ft 154 kts 156°
2026-04-25 14:05 43.68579 9.66566 5508 ft 154 kts 156°
2026-04-25 14:05 43.67649 9.67291 5508 ft 154 kts 156°
2026-04-25 14:06 43.66712 9.68019 5508 ft 154 kts 156°
2026-04-25 14:06 43.65777 9.68746 5511 ft 154 kts 156°
2026-04-25 14:06 43.64843 9.69472 5512 ft 154 kts 156°
2026-04-25 14:06 43.63912 9.70195 5512 ft 154 kts 156°
2026-04-25 14:07 43.62979 9.70919 5510 ft 154 kts 156°
2026-04-25 14:07 43.62049 9.71642 5509 ft 154 kts 156°
2026-04-25 14:07 43.61118 9.72369 5504 ft 154 kts 156°
2026-04-25 14:07 43.60183 9.73095 5504 ft 154 kts 157°
2026-04-25 14:08 43.59260 9.73803 5508 ft 154 kts 157°
2026-04-25 14:08 43.58327 9.74526 5509 ft 154 kts 157°
2026-04-25 14:08 43.57395 9.75252 5509 ft 154 kts 157°
2026-04-25 14:08 43.56463 9.75976 5510 ft 154 kts 157°
2026-04-25 14:09 43.55531 9.76698 5508 ft 154 kts 157°
2026-04-25 14:09 43.54599 9.77418 5508 ft 154 kts 157°
2026-04-25 14:09 43.53666 9.78141 5509 ft 154 kts 157°
2026-04-25 14:09 43.53033 9.78630 5510 ft 154 kts 157°
2026-04-25 14:10 43.51794 9.79589 5514 ft 154 kts 157°
2026-04-25 14:10 43.50856 9.80314 5514 ft 155 kts 157°
2026-04-25 14:10 43.49917 9.81040 5513 ft 155 kts 157°
2026-04-25 14:10 43.48976 9.81767 5513 ft 155 kts 157°
2026-04-25 14:11 43.48034 9.82494 5512 ft 155 kts 157°
2026-04-25 14:11 43.47094 9.83220 5510 ft 155 kts 157°
2026-04-25 14:11 43.46148 9.83947 5506 ft 156 kts 156°
2026-04-25 14:11 43.45201 9.84682 5509 ft 157 kts 156°
2026-04-25 14:12 43.44249 9.85420 5510 ft 157 kts 156°
2026-04-25 14:12 43.43295 9.86153 5509 ft 157 kts 156°
2026-04-25 14:12 43.42343 9.86883 5508 ft 157 kts 156°
2026-04-25 14:12 43.41392 9.87617 5508 ft 157 kts 156°
2026-04-25 14:13 43.40441 9.88352 5510 ft 157 kts 156°
2026-04-25 14:13 43.39492 9.89084 5513 ft 156 kts 156°
2026-04-25 14:13 43.38542 9.89812 5514 ft 156 kts 156°
2026-04-25 14:13 43.37591 9.90542 5514 ft 156 kts 156°
2026-04-25 14:14 43.36644 9.91272 5509 ft 156 kts 156°
2026-04-25 14:14 43.35696 9.92002 5509 ft 156 kts 157°
2026-04-25 14:14 43.34747 9.92730 5509 ft 156 kts 157°
2026-04-25 14:14 43.33799 9.93458 5510 ft 156 kts 157°
2026-04-25 14:15 43.32851 9.94186 5513 ft 156 kts 156°
2026-04-25 14:15 43.32544 9.94422 5513 ft 156 kts 156°
2026-04-25 14:15 43.30957 9.95640 5514 ft 156 kts 157°
2026-04-25 14:15 43.30022 9.96357 5515 ft 156 kts 157°
2026-04-25 14:16 43.29073 9.97085 5514 ft 156 kts 157°
2026-04-25 14:16 43.28123 9.97813 5513 ft 156 kts 156°
2026-04-25 14:16 43.27174 9.98540 5513 ft 156 kts 156°
2026-04-25 14:16 43.26222 9.99270 5512 ft 156 kts 156°
2026-04-25 14:17 43.25274 9.99997 5507 ft 156 kts 157°
2026-04-25 14:17 43.24324 10.00723 5508 ft 156 kts 157°
2026-04-25 14:17 43.23375 10.01448 5508 ft 156 kts 156°
2026-04-25 14:17 43.22424 10.02176 5510 ft 156 kts 156°
2026-04-25 14:18 43.21475 10.02902 5508 ft 156 kts 157°
2026-04-25 14:18 43.20527 10.03627 5508 ft 156 kts 157°
2026-04-25 14:18 43.19581 10.04350 5509 ft 156 kts 157°
2026-04-25 14:18 43.18636 10.05069 5510 ft 155 kts 156°
2026-04-25 14:19 43.17693 10.05786 5513 ft 155 kts 156°
2026-04-25 14:19 43.16744 10.06517 5452 ft 159 kts 156°
2026-04-25 14:19 43.15766 10.07264 5326 ft 162 kts 156°
2026-04-25 14:19 43.14777 10.08016 5199 ft 163 kts 156°
2026-04-25 14:20 43.13799 10.08762 5073 ft 163 kts 156°
2026-04-25 14:20 43.13464 10.09017 5031 ft 163 kts 156°
2026-04-25 14:20 43.11813 10.10276 4823 ft 163 kts 156°
2026-04-25 14:20 43.10818 10.11032 4695 ft 163 kts 156°
2026-04-25 14:21 43.09824 10.11789 4575 ft 163 kts 156°
2026-04-25 14:21 43.08836 10.12541 4449 ft 163 kts 156°
2026-04-25 14:21 43.07846 10.13294 4319 ft 162 kts 156°
2026-04-25 14:21 43.06859 10.14044 4193 ft 162 kts 156°
2026-04-25 14:22 43.05876 10.14792 4066 ft 162 kts 156°
2026-04-25 14:22 43.04895 10.15538 3942 ft 161 kts 156°
2026-04-25 14:22 43.03914 10.16282 3819 ft 161 kts 155°
2026-04-25 14:22 43.02949 10.17015 3699 ft 161 kts 155°
2026-04-25 14:23 43.01973 10.17755 3579 ft 160 kts 155°
2026-04-25 14:23 43.00999 10.18495 3456 ft 160 kts 155°
2026-04-25 14:23 43.00025 10.19234 3332 ft 160 kts 155°
2026-04-25 14:23 42.99052 10.19971 3206 ft 160 kts 155°
2026-04-25 14:24 42.98080 10.20704 3067 ft 160 kts 155°
2026-04-25 14:24 42.97102 10.21448 2937 ft 160 kts 154°
2026-04-25 14:24 42.96128 10.22188 2808 ft 160 kts 154°
2026-04-25 14:24 42.95158 10.22925 2685 ft 159 kts 154°
2026-04-25 14:25 42.94186 10.23657 2559 ft 160 kts 154°
2026-04-25 14:25 42.93210 10.24390 2429 ft 160 kts 153°
2026-04-25 14:25 42.92239 10.25131 2295 ft 159 kts 153°
2026-04-25 14:25 42.91925 10.25369 2253 ft 159 kts 153°
2026-04-25 14:26 42.90311 10.26588 2085 ft 158 kts 153°
2026-04-25 14:26 42.89356 10.27309 2043 ft 156 kts 153°
2026-04-25 14:26 42.88410 10.28023 2021 ft 155 kts 153°
2026-04-25 14:26 42.87473 10.28731 2011 ft 153 kts 153°
2026-04-25 14:27 42.86542 10.29434 2005 ft 153 kts 153°
2026-04-25 14:27 42.85610 10.30137 2003 ft 153 kts 153°
2026-04-25 14:27 42.84677 10.30838 2001 ft 153 kts 153°
2026-04-25 14:27 42.83744 10.31541 1999 ft 153 kts 152°
2026-04-25 14:28 42.82815 10.32243 2000 ft 152 kts 152°
2026-04-25 14:28 42.81888 10.32945 2003 ft 152 kts 153°
2026-04-25 14:28 42.80953 10.33645 2028 ft 154 kts 153°
2026-04-25 14:28 42.80014 10.34350 2013 ft 154 kts 152°
2026-04-25 14:29 42.79072 10.35063 2039 ft 156 kts 153°
2026-04-25 14:29 42.78116 10.35783 2021 ft 157 kts 153°
2026-04-25 14:29 42.77163 10.36498 2001 ft 156 kts 153°
2026-04-25 14:29 42.76219 10.37201 1989 ft 154 kts 153°
2026-04-25 14:30 42.75283 10.37910 1993 ft 154 kts 153°
2026-04-25 14:30 42.73395 10.39188 1987 ft 149 kts 174°
2026-04-25 14:30 42.72453 10.38745 2001 ft 147 kts 226°
2026-04-25 14:31 42.72084 10.37536 2007 ft 136 kts 258°
2026-04-25 14:31 42.71893 10.36326 1790 ft 120 kts 260°
2026-04-25 14:31 42.71772 10.35141 1441 ft 120 kts 265°
2026-04-25 14:31 42.71751 10.34079 1432 ft 107 kts 271°
2026-04-25 14:32 42.71815 10.33081 1329 ft 108 kts 277°
2026-04-25 14:32 42.71931 10.32085 1238 ft 105 kts 280°
2026-04-25 14:32 42.72081 10.31205 1207 ft 94 kts 284°
2026-04-25 14:32 42.72267 10.30344 1132 ft 88 kts 287°
2026-04-25 14:33 42.72460 10.29564 1060 ft 89 kts 286°
2026-04-25 14:33 42.72602 10.28785 1090 ft 84 kts 279°
2026-04-25 14:33 42.72699 10.27984 1049 ft 85 kts 278°
2026-04-25 14:33 42.72772 10.27206 1031 ft 83 kts 274°
2026-04-25 14:34 42.72852 10.26447 1005 ft 82 kts 291°
2026-04-25 14:34 42.73160 10.25758 898 ft 87 kts 299°
2026-04-25 14:34 42.73537 10.25131 826 ft 78 kts 323°
2026-04-25 14:34 42.74025 10.24812 654 ft 80 kts 341°
2026-04-25 14:35 42.74549 10.24619 487 ft 77 kts 343°
2026-04-25 14:35 42.75066 10.24425 189 ft 82 kts 345°
2026-04-25 14:35 42.75573 10.24215 32 ft 67 kts 343°
2026-04-25 14:35 42.75933 10.24052 17 ft 42 kts 347°
2026-04-25 14:36 42.76152 10.23955 17 ft 22 kts 340°
2026-04-25 14:36 42.76243 10.23903 16 ft 13 kts 310°
2026-04-25 14:36 42.76277 10.23818 14 ft 11 kts 345°
2026-04-25 14:36 42.76290 10.23789 14 ft 0 kts 249°